Погода в Шавате

Узбекистан     41°39′25″N   60°17′37″E
темп.,
°C
ветер,
м/с
пор.,
м/с
влажн.,
%
обл.,
%
осадки,
мм/ч
давл.,
гПа
погр.,
м
27 февраля, сб
сб2723:00−1ю5922100 0.0 1028639
02:00−1ююз71228100 0.1 1025668
05:000ююз71335100 0.3 1024684
08:00−2юз9148997 0.2 1023456
11:00+1юз7128699 0.6 1025437
14:00+4юз71072100 0.0 1024568
17:00+4юз61075100 0.0 1023405
20:00+3ююз5977100 0.0 1024210
28 февраля, вс
вс2823:00+3ююз596887 0.0 1024183
02:00+1ю456623 0.0 102373
05:000ю344912 0.0 102150
08:00+1ююв453733 0.0 102181
11:00+6ююв562557 0.0 1021313
14:00+11ю561974 0.0 1018768
17:00+12ююв452053 0.0 1016827
20:00+7юв342916 0.0 101641
1 марта, пн
пн123:00+6юв45408 0.0 101758
02:00+5ююв34440 0.0 101739
05:00+3ююв34480 0.0 101622
08:00+3ююв23520 0.0 101622
11:00+9ю23350 0.0 1017276
14:00+14зюз34230 0.0 1017859
17:00+15з45220 0.0 10161122
20:00+10зюз34300 0.0 101835
2 марта, вт
вт223:00+8ссз44390 0.0 102068
02:00+4с47860 0.0 1021170
05:00+2с46920 0.0 1022167
08:00+1с47892 0.0 1025251
11:00+6ссв44653 0.0 1026665
14:00+9ссз335424 0.0 10251077
17:00+8ссз545756 0.0 1024942
20:00+6ссв3366100 0.0 1025399
3 марта, ср
ср323:00+4всв237491 0.0 102577
02:00+4вюв237854 0.0 102562
05:00+3вюв238074 0.0 102367
08:00+3вюв3479100 0.0 102398
11:00+7юв446098 0.0 1022632
14:00+10ююв335037 0.0 10201160
17:00+10ю234965 0.0 10181291
20:00+9ююв225395 0.0 1017142